Location: Pl�tzky
(52.0521°N, 11.8020°E)
Time: 16:07:00
(UTC+00:00)

Meteor 1-14 Rocket - Pass Details

Date: 22 November 2019
Orbit: 834 x 918 km, 81.3° (Epoch: 07 December)

Event Time Altitude Azimuth Distance (km) Brightness Sun altitude
Rises 17:40:27 0° 346° (NNW) 3,568 7.6 -22.1°
Reaches altitude 10° 17:42:56 10° 347° (NNW) 2,625 6.8 -22.5°
Maximum altitude 17:48:58 89° 70° (ENE) 926 4.3 -23.4°
Drops below altitude 10° 17:54:56 10° 169° (S) 2,597 6.6 -24.3°
Sets 17:57:23 0° 169° (S) 3,527 7.3 -24.7°
